Tracking 30969 objects as of 5-Jul-2025
HD Live streaming from Space Station
objects crossing your sky now

YAOGAN-30 U

Track YAOGAN-30 U now!
10-day predictions


NORAD ID: 46807
Int'l Code: 2020-076A
Perigee: 572.5 km
Apogee: 575.1 km
Inclination: 35.0 °
Period: 96.0 minutes
Semi major axis: 6944 km
RCS: Unknown
Launch date: October 26, 2020
Source: People's Republic of China (PRC)
Launch site: Xichang Space Center, China (XSC)
Your satellite tracking list
Your tracking list is empty




NASA's NSSDC Master Catalog

Two Line Element Set (TLE):
1 46807U 20076A   25185.88701184  .00002207  00000-0  17586-3 0  9999
2 46807  34.9950  44.0869 0001904 300.6236  59.4283 15.00078034256004
Source of the keplerian elements: AFSPC